CYGR

Iles-de-la-Madeleine Airport

ICAO Code CYGR
IATA Code YGR
Name Iles-de-la-Madeleine Airport
Location Iles-de-la-Madeleine, Quebec, CA
Elevation 35 Feet / 10.7 Meters
Latitude 47.42500000
Longitude -61.77805556
METAR CYGR 012200Z 22011KT 20SM FEW270 21/12 A2987 RMK CI1 SLP115 DENSITY ALT 800FT
Extra information Display Charts and CFS
Display NOTAMS
Runway Length Width Surface Elevation
07 4493 ft 150 ft ASP 22 ft
16 3608 ft 150 ft ASP 9 ft
25 4493 ft 150 ft ASP 12 ft
34 3608 ft 150 ft ASP 35 ft